Regional Weather Roundup
Issued by NWS Grand Forks, ND

Home | Current Version | Previous Version | Graphics & Text | Print | Product List | Glossary On
Versions: 1 2 3 4 5 6 7 8 9 10 11 12 13 14 15 16 17 18 19 20 21 22 23 24 25 26 27 28 29 30 31 32 33 34 35 36 37 38 39 40 41 42 43 44 45 46 47 48 49 50
888
ASUS43 KFGF 251510
RWRFGF
PRAIRIE TO PINES  WEATHER ROUNDUP
NATIONAL WEATHER SERVICE EASTERN NORTH DAKOTA/GRAND FORKS ND
900 AM CST SAT FEB 25 2017

 **SATELLITE DATA USED TO AUGMENT SKY COVER AT AUTOMATED STATIONS**
 *****  WEATHER ACROSS EASTERN NORTH DAKOTA  *****

CITY           SKY/WX    TMP DP  RH WIND       PRES   REMARKS
GRAND FORKS    CLOUDY    25  16  68 SW12      29.87F WCI  14
GRAND FRKS AFB CLOUDY    24  18  77 SW8       29.87F WCI  15
DEVILS LAKE    CLOUDY    21  19  92 W9        29.85F WCI  11
FARGO          CLOUDY    22  17  81 S12       29.92F WCI  10
WAHPETON ARPT  CLOUDY    21  16  79 SW9       29.96F WCI  11
$$

 ***** WEATHER ACROSS CENTRAL AND WESTERN NORTH DAKOTA  *****

CITY           SKY/WX    TMP DP  RH WIND       PRES   REMARKS
BISMARCK       LGT SNOW  23  18  81 W5        29.89F WCI  17
MINOT          FAIR      21  16  81 W13       29.88S WCI   9
JAMESTOWN      PTSUNNY   22  17  81 W8        29.87F WCI  12
MINOT AFB      NOT AVBL
GARRISON         N/A     19  17  92 N18       29.88S WCI   4
WILLISTON      CLOUDY    18  17  96 NW6       29.91F FOG     WCI  10
DICKINSON      CLOUDY    22  19  89 NW12      29.84S WCI  10
HETTINGER      CLOUDY    25  21  85 W10       29.86F WCI  15
$$

 *****  OTHER AIRPORT OBSERVATIONS IN OUR AREA  *****

CITY           SKY/WX    TMP DP  RH WIND       PRES   REMARKS
WALHALLA       NOT AVBL
GRAFTON AIRPOR PTSUNNY   21  19  93 W7        29.88S WCI  13
VALLEY CITY AR FLURRIES  23  23 100 SW13      29.90F WCI  11
CANDO          NOT AVBL
CAVALIER APRT    N/A     21  18  86 NW12      29.85F WCI   9
GWINNER        CLOUDY    25  21  86 SW13      29.93F WCI  13
SHEYENNE NWR     N/A     23  19  83 SW7       29.95S WCI  15
ROLLA          CLOUDY    19  18  93 NW21      29.83S WCI   3
 ***** THE ABOVE OBSERVATIONS ARE NON NWS ARE NOT QUALITY
       CONTROLLED AND MAY MIS-REPORT RAIN FOR SNOW...
$$

  *****  WEATHER ACROSS NORTHERN MINNESOTA  *****

CITY           SKY/WX    TMP DP  RH WIND       PRES   REMARKS
FLAG ISLAND    CLOUDY     7   1  78 CALM      29.84F
WARROAD        LGT SNOW  12   9  85 CALM      29.86F
ROSEAU         LGT SNOW  14   9  79 S6        29.85F VSB 1   WCI   5
HALLOCK        FLURRIES  19  18  93 SW7       29.85F WCI  10
THF RVR FALLS  FAIR      18  13  80 SW14      29.86F WCI   4
BAUDETTE       CLOUDY     8   1  73 CALM      29.85F
WASKISH        CLOUDY    12   7  79 W6        29.87F WCI   3
CROOKSTON      CLOUDY    21  18  86 SW14      29.89F WCI   8
GREENBUSH NDAW   N/A     18  16  93 S7          N/A  WCI   8
$$
  *****  WEATHER ACROSS CENTRAL AND WEST MINNESOTA  *****

CITY           SKY/WX    TMP DP  RH WIND       PRES   REMARKS
FOSSTON        CLOUDY    16  10  79 S13       29.88F WCI   2
BEMIDJI        CLOUDY    10   5  79 SW3       29.87F
PARK RAPIDS    FLURRIES  14   5  67 W6        29.89F WCI   5
ELBOW LAKE     CLOUDY    18  13  81 SW7       29.96F WCI   8
WADENA         FLURRIES  14   7  73 W6        29.91F WCI   5
DETROIT LAKES  FAIR      19  14  79 SW7       29.91F WCI  10
MOORHEAD       FAIR      21  16  79 S12       29.94F WCI   9
FERGUS FALLS   CLOUDY    19  12  73 SW7       29.99F WCI  10
MORRIS MN      CLOUDY    19  12  73 W6        29.97F WCI  11
STAPLES        CLOUDY    14   7  73 W7        29.92F WCI   4
$$
  *****  WEATHER ELSEWHERE ACROSS MINNESOTA  *****

CITY           SKY/WX    TMP DP  RH WIND       PRES   REMARKS
DULUTH         FAIR       9   3  77 NW20G31   29.80F WCI -10
INTRNTL FALLS  FAIR       7  -2  66 W6        29.84F WCI  -3
ELY            FAIR       7   1  78 NW6       29.80S WCI  -3
CLOQUET        FAIR      10   1  67 W14G21    29.84F WCI  -5
WHEATON        CLOUDY    19  12  73 S5        29.99F WCI  13
BRAINERD       FAIR      13   3  64 NW10      29.92S WCI   0
HIBBING        FAIR       6  -1  73 NW12      29.84S WCI  -9
ALEXANDRIA     PTSUNNY   18   9  68 W8        29.94F WCI   8
SAINT CLOUD    FAIR      18   5  57 NW9       29.95S WCI   7
MINNEAPOLIS    FAIR      18   3  52 NW20      29.96R WCI   2
$$

  *****  WEATHER ACROSS SOUTH DAKOTA  *****

CITY           SKY/WX    TMP DP  RH WIND       PRES   REMARKS
SIOUX FALLS    PTSUNNY   18  15  88 W3        30.03S
BROOKINGS      CLOUDY    22  18  85 W8        29.99S WCI  12
WATERTOWN      CLOUDY    20  16  84 SW8       29.96S WCI  10
HURON          CLOUDY    24  18  77 SW9       30.00F WCI  14
SISSETON         N/A     24  18  77 W8        29.95F WCI  15
ABERDEEN       FAIR      23  17  78 S8        29.96F WCI  14
MITCHELL       CLOUDY    24  17  74 SW9       30.04F WCI  14
PIERRE         FAIR      24  16  71 SW9       29.94F WCI  14
MOBRIDGE       PTSUNNY   25  15  66 S8        29.88F WCI  16
RAPID CITY     CLOUDY    24  15  68 W3        29.89F
$$

  *****  SOME WEATHER IN NEARBY STATES *****

CITY           SKY/WX    TMP DP  RH WIND       PRES   REMARKS
GLASGOW MT     LGT SNOW  21  19  92 S3        29.87F FOG
GREAT FALLS MT FAIR      20  12  71 SW12      29.84F WCI   8
CHEYENNE WY    FAIR      15  -1  49 NW5       29.87F WCI   8
SCOTTSBLUFF NE FAIR       4  -1  80 NW10      29.97S WCI -11
OMAHA NE       PTSUNNY   20  12  71 NW7       30.15R WCI  11
DES MOINES IA  FAIR      20   9  62 NW17      30.07R WCI   5
DAVENPORT IA   FAIR      20  11  68 NW22G29   29.94R WCI   3
CHICAGO IL     FLURRIES  23  14  68 NW16      29.80R WCI  10
EAU CLAIRE WI  FAIR      13   4  67 NW15      29.86R WCI  -3
LA CROSSE WI   FAIR      19   8  62 NW20      29.88R WCI   3
$$

  *****  SOME NATIONAL WEATHER *****

CITY           SKY/WX    TMP DP  RH WIND       PRES   REMARKS
LA GUARDIA NY  FOG       55  51  86 SE9       29.74F VSB 1
RALEIGH NC     PTSUNNY   68  56  65 SW16      29.72F
ATLANTA GA     FAIR      60  35  39 NW21G26   29.86S
NEW ORLEANS LA FAIR      60  37  42 N14G21    30.04R
OKLAHOMA CITY  FAIR      30  18  60 N12       30.25R WCI  20
ALBUQUERQUE NM FAIR      30   4  33 N3        30.10R
SALT LAKE CITY CLOUDY    24  15  68 SE10      30.08S WCI  14
LOS ANGELES CA FAIR      44  36  73 NE6       30.12F
BOISE ID       FAIR      22  15  75 CALM      30.15R
SEATTLE WA     MOCLDY    33  27  78 SE3       30.24F
$$

*** WEATHER ACROSS MANITOBA...SASKATCHEWAN AND ONTARIO ***
                ***ONTARIO***

CITY           SKY/WX    TMP DP  RH WIND       PRES   REMARKS
GERALDTON      LGT SNOW   3  -2  78 NW13G20   29.57F DRFTSNOWWCI -14
THUNDER BAY    PTSUNNY   14   1  57 NW16G25   29.71F WCI  -2
SIOUX LOOKOUT  MOSUNNY    9   0  66 NW10      29.76S WCI  -6
TORONTO        CLOUDY    43  41  93 W12       29.45R
BIG TROUT LK   LGT SNOW -11 -15  84 CALM      29.75
PICKLE LAKE    PTSUNNY   -4 -13  65 W5        29.69F WCI -15
DRYDEN         SUNNY      3  -2  78 W7        29.77F WCI  -9
KENORA         PTSUNNY    7  -2  66 NW5       29.81F WCI  -2
$$
                *** MANITOBA***

CITY           SKY/WX    TMP DP  RH WIND       PRES   REMARKS
BRANDON        PTSUNNY   16  14  93 NW20G25   29.85S WCI  -1
DAUPHIN        LGT SNOW  12   9  85 N10       29.89S WCI  -1
ISLAND LAKE    CRYSTALS  -8 -11  84 W3        29.80F
PILOT MOUND      N/A     16  14  93 NW7         N/A  WCI   6
THE PAS        FLURRIES   1  -6  71 NW13      29.89F WCI -16
THOMPSON       PTSUNNY  -20 -26  76 SW2       29.81F
WINNIPEG       FLURRIES  16  12  86 SW8       29.83F WCI   5
LYNN LAKE      FLURRIES -11 -15  84 W9        29.79F WCI -29
CHURCHILL      CRYSTALS -15 -20  76 SW6       29.85F WCI -29
GILLAM         PTSUNNY  -17 -22  76 W3        29.82F
$$
                ***SASKATCHEWAN***

CITY           SKY/WX    TMP DP  RH WIND       PRES   REMARKS
ESTEVAN        CLOUDY    12   9  85 NW9       29.90F WCI   0
KINDERSLEY     MOCLDY     9   5  85 S3        29.87F
LLOYDMINSTER   MOCLDY     1  -2  85 S8        29.82F WCI -12
PRINCE ALBERT  FLURRIES   5  -4  66 NW8       29.91F WCI  -8
REGINA         CLOUDY    10   5  79 NW8       29.90F WCI  -1
YORKTON        FLURRIES   9   1  72 NW10      29.87F WCI  -6
N. BATTLEFORD  MOCLDY     3   0  85 SW3       29.92F
LA RONGE       MOCLDY    -4  -8  84 S3        29.88F
SASKATOON      CLOUDY     7   1  78 W6        29.93F WCI  -3
SWIFT CURRENT  LGT SNOW   9   7  92 W3        29.84F
$$
NOTE: THESE ARE AUTOMATED STATIONS WITH LIMITED QUALITY CONTROL
      "FAIR" INDICATES FEW OR NO CLOUDS BELOW 12,000 FEET WITH NO
      SIGNIFICANT WEATHER AND/OR OBSTRUCTIONS TO VISIBILITY.
      SKY/WX - SKY CONDITION AND SIGNIFICANT WEATHER.
      TMP - AIR TEMPERATURE.    DP   - DEWPOINT TEMPERATURE.
      RH  - RELATIVE HUMIDITY.  PRES - PRESSURE.
      HX  - HEAT INDEX.         WCI  - WIND CHILL INDEX.
$




USA.gov is the U.S. government's official web portal to all federal, state and local government web resources and services.